Wind_Speed
1 0 0 1 2 2 3 3 4 4 4 4 4 3 4 4 4 5 6 6 6 6 6 6 6 6 6 6 5 5 5 5 5 5 5 5 4 4 4 4 3 3 4
1 2 2 3 3 4 4 5 5 5 5 5 5 5 5 5 5 5 6 7 7 7 7 7 7 7 7 7 7 7 6 6 6 6 6 6 5 5 5 5 4 4 4
2 3 3 4 4 5 5 6 6 7 7 7 6 6 6 7 7 6 7 7 8 8 8 8 8 8 8 8 8 8 8 7 7 7 7 7 7 7 6 6 6 6 6
4 4 4 5 5 6 7 7 7 8 8 8 8 8 8 8 8 8 8 9 9 9 10 10 10 9 9 9 9 9 9 9 9 9 9 8 8 8 8 8 8 7 7
5 6 6 6 7 8 8 8 9 9 10 10 9 9 9 10 10 10 10 10 10 11 11 12 11 11 11 11 11 11 11 11 10 11 10 10 10 10 10 10 9 9 9
7 8 8 8 9 9 10 10 11 11 11 11 11 11 11 11 11 11 11 12 12 12 13 13 13 13 13 12 12 12 12 12 12 12 12 11 11 11 11 11 12 11 11
9 9 9 10 11 11 11 12 12 12 12 12 12 12 12 12 12 13 13 14 14 14 14 14 14 14 14 14 13 14 14 14 14 14 14 13 13 13 13 13 13 13 13
10 11 11 12 12 12 12 13 13 13 13 13 13 13 13 14 14 14 15 15 15 15 16 16 16 15 15 16 15 15 15 16 16 16 15 15 15 14 14 15 15 15 15
13 12 13 13 13 13 13 13 13 14 14 14 14 14 15 15 15 15 16 16 17 17 17 17 17 17 17 17 17 17 17 17 17 17 17 17 17 16 16 16 16 16 16
13 13 12 13 13 14 14 14 15 15 15 15 15 15 15 16 17 17 17 17 18 18 19 19 19 19 19 19 19 19 19 18 18 18 19 19 18 18 18 18 18 18 18
14 13 13 14 14 15 15 16 16 16 16 16 17 17 17 18 18 18 19 20 20 20 21 21 21 21 21 21 21 21 21 20 19 19 20 20 20 20 19 19 19 19 19
14 15 14 15 16 16 16 17 17 17 18 18 18 19 19 19 20 20 21 21 21 21 22 22 22 23 23 22 22 23 23 22 22 22 22 22 22 22 22 22 21 20 20
16 15 16 17 17 17 17 18 18 18 19 19 19 19 20 20 21 21 22 22 23 23 23 24 24 24 24 24 25 25 24 24 24 24 23 23 23 24 24 23 23 22 21
16 16 16 17 18 18 19 19 19 19 19 20 20 20 21 22 22 23 23 23 24 24 25 25 25 25 25 25 25 25 25 25 25 25 25 24 24 24 25 25 25 25 24
18 18 17 17 18 19 20 20 20 20 20 20 21 21 22 23 23 23 24 24 24 25 25 26 26 26 26 26 26 26 26 26 26 26 26 26 25 25 26 27 27 27 27
19 19 19 19 19 20 21 21 21 21 21 22 22 23 23 23 23 23 24 25 26 26 27 27 27 28 28 28 28 27 27 27 27 28 28 27 26 26 26 27 27 28 28
19 20 19 20 20 20 21 20 21 22 23 23 24 24 24 24 24 24 25 26 27 27 28 28 28 29 29 29 29 28 28 27 28 29 28 28 27 26 27 26 27 27 28
20 20 20 20 20 19 20 21 22 23 24 24 25 25 25 25 25 26 26 26 27 28 28 28 29 29 28 28 28 28 29 29 29 29 28 28 28 27 26 27 27 28 27
20 20 20 20 20 20 21 22 23 23 24 24 25 26 26 26 26 27 27 27 27 28 28 29 29 28 28 29 29 29 29 29 30 29 28 27 28 28 28 28 28 28 27
21 22 21 21 21 21 22 22 23 23 24 25 26 26 27 27 28 28 28 28 28 28 29 29 29 29 28 28 28 29 29 29 29 29 29 29 28 29 29 29 29 28 28
22 21 21 21 21 22 23 23 24 25 25 26 26 27 27 28 28 28 28 29 29 29 29 29 29 29 28 27 28 29 29 30 30 30 30 30 29 29 29 29 29 29 29
21 22 22 22 23 22 23 24 25 25 26 27 27 27 27 28 28 28 28 30 30 30 30 30 29 28 27 27 28 29 30 30 30 30 31 31 30 31 30 29 30 30 30
21 22 21 21 21 22 22 24 24 24 26 27 26 26 27 27 28 28 29 29 30 30 30 30 29 29 28 29 29 30 30 31 30 31 31 31 31 31 31 31 31 31 31
22 21 21 21 22 22 23 24 24 25 25 26 26 26 27 27 27 28 29 29 30 30 30 30 29 29 29 29 29 29 29 30 29 30 30 31 31 31 32 32 32 33 33
22 22 22 23 23 23 23 24 24 24 24 25 26 26 27 28 28 28 29 29 29 30 30 29 29 29 29 28 28 28 28 29 29 29 30 30 31 32 32 32 33 34 34
22 23 23 23 24 24 23 24 23 23 24 25 26 27 27 27 28 28 29 29 29 29 29 28 28 28 28 27 28 27 27 27 27 27 28 29 30 30 32 32 32 33 34
Wind_Direction
82 216 256 297 307 304 299 298 297 297 297 300 303 310 317 325 332 335 337 336 333 331 329 325 324 325 327 324 322 320 321 319 315 309 303 297 290 283 279 272 263 264 264
287 281 278 282 292 297 298 299 298 295 294 294 296 300 303 307 312 317 322 322 318 316 317 314 313 312 313 312 311 310 309 307 304 300 297 292 286 279 275 269 264 260 259
273 284 280 284 286 287 290 293 294 293 292 295 296 297 299 301 302 304 307 308 306 305 306 305 302 301 301 303 303 301 300 300 298 293 291 288 282 275 272 268 263 257 254
274 281 278 283 284 281 283 287 291 293 294 295 296 298 299 298 297 298 299 299 299 298 297 296 297 296 295 294 294 293 291 291 290 287 286 283 278 272 268 265 264 259 253
283 282 277 281 283 281 282 285 288 291 294 295 296 298 298 298 297 296 295 296 294 294 293 293 293 291 290 290 288 286 285 283 282 281 281 278 274 271 267 262 260 257 254
283 281 278 278 281 283 282 283 287 291 293 294 295 297 298 296 296 295 293 292 292 293 293 292 293 290 286 286 287 283 280 278 276 276 274 273 271 268 265 261 257 255 253
276 274 275 276 278 282 284 285 286 290 290 293 295 297 298 295 294 293 292 291 291 292 292 290 291 291 286 285 284 283 279 275 275 274 270 268 267 265 262 260 257 254 251
273 270 271 273 276 278 281 283 282 286 290 292 295 295 294 293 292 291 290 289 289 289 289 288 288 286 285 283 282 280 280 276 273 272 271 267 264 263 261 259 256 254 251
274 270 270 270 271 273 277 280 282 284 287 290 292 293 291 292 291 289 289 288 289 288 287 286 286 285 284 282 280 279 277 277 273 270 270 268 265 263 262 259 254 251 251
274 269 268 268 268 271 275 280 285 286 286 288 289 290 290 290 290 287 287 287 287 286 285 284 285 284 283 283 280 278 276 275 273 269 269 268 265 263 263 261 256 252 250
277 274 274 271 272 273 276 280 283 284 285 286 288 288 288 288 289 289 289 288 287 286 285 285 285 283 281 280 277 275 275 274 272 271 271 270 265 262 261 262 260 256 253
281 281 279 276 275 275 275 278 279 281 283 285 287 288 288 288 289 288 289 289 288 287 286 284 284 283 281 279 276 274 274 273 271 271 271 270 266 262 260 261 260 259 257
282 280 277 276 277 275 275 276 277 280 282 284 286 287 288 289 290 290 290 289 288 287 287 284 283 282 281 279 278 276 274 273 270 270 270 268 266 263 261 261 259 259 258
282 279 278 275 277 276 275 275 277 280 283 284 286 287 288 289 290 290 291 290 289 287 287 286 283 282 283 280 278 276 275 273 271 271 270 267 264 262 261 261 259 259 258
282 278 276 276 275 275 274 275 276 279 281 283 285 285 287 288 288 289 289 288 286 286 285 285 283 283 282 281 278 276 276 274 272 271 271 267 265 262 261 260 258 258 257
280 275 273 275 276 274 272 273 275 278 280 282 283 284 285 286 286 287 285 286 285 283 283 283 283 283 283 281 277 275 275 275 273 271 271 269 267 264 262 259 258 259 258
280 275 274 277 278 273 273 274 277 279 280 283 284 284 285 285 285 285 285 285 286 284 283 283 284 283 281 279 277 275 274 273 273 271 270 269 268 265 262 261 259 258 257
282 280 279 279 280 279 278 279 282 283 283 285 285 284 284 283 284 286 286 286 286 285 284 284 285 283 280 278 276 274 273 272 273 271 269 268 267 265 263 262 261 259 258
282 283 282 283 284 284 283 282 285 286 287 288 286 284 283 283 284 286 287 287 286 286 285 286 285 282 280 278 276 274 272 272 272 271 269 267 266 264 263 261 260 260 259
282 283 283 285 286 286 284 285 286 287 288 287 286 285 284 283 285 286 286 286 286 287 286 286 285 283 281 280 278 274 271 271 271 270 268 267 265 264 263 262 259 259 258
283 283 283 285 286 287 287 288 288 288 287 287 288 287 285 286 286 287 286 286 287 288 287 287 285 284 282 281 279 276 273 271 271 269 269 268 265 263 263 261 259 260 259
283 282 281 283 285 288 290 290 289 287 288 287 287 287 288 287 286 287 288 287 288 289 288 286 285 283 282 282 280 277 275 273 271 269 268 267 265 263 261 260 261 260 261
285 283 282 284 286 288 290 291 290 289 290 288 286 285 286 286 287 288 288 289 289 288 287 286 284 282 282 282 280 278 276 274 271 268 267 266 264 263 261 260 259 260 259
288 286 285 285 287 288 289 288 289 291 292 290 286 284 286 287 288 289 289 289 290 290 289 285 284 282 281 281 281 280 278 275 272 268 267 266 264 262 260 260 259 259 258
287 285 285 285 287 288 288 288 289 290 291 291 288 288 287 287 288 291 291 291 291 291 290 287 285 283 282 281 281 280 278 275 272 269 269 269 267 265 262 260 258 258 258
285 286 287 286 286 286 286 287 290 292 292 292 291 290 290 291 291 292 292 293 293 292 291 289 287 285 283 282 282 280 279 277 274 270 269 269 268 267 265 263 261 260 259
Height
5911 5910 5910 5910 5910 5909 5909 5909 5909 5908 5908 5907 5906 5906 5905 5904 5903 5903 5902 5902 5901 5901 5901 5900 5900 5899 5899 5898 5898 5897 5897 5896 5896 5896 5895 5895 5894 5894 5893 5893 5892 5892 5892
5910 5909 5909 5909 5909 5908 5908 5908 5907 5907 5906 5905 5905 5904 5903 5903 5902 5901 5901 5901 5900 5900 5899 5899 5899 5898 5898 5897 5897 5896 5896 5895 5895 5894 5894 5893 5893 5893 5892 5892 5891 5891 5891
5909 5908 5908 5908 5907 5907 5907 5906 5906 5905 5905 5904 5903 5902 5902 5901 5900 5900 5900 5899 5899 5898 5898 5897 5897 5897 5896 5895 5895 5894 5894 5894 5893 5892 5892 5892 5891 5891 5891 5891 5890 5890 5890
5908 5907 5907 5906 5906 5906 5905 5905 5904 5904 5903 5902 5902 5901 5900 5899 5899 5898 5898 5897 5897 5896 5896 5895 5895 5894 5894 5893 5893 5892 5892 5892 5891 5891 5890 5890 5889 5889 5889 5889 5889 5889 5889
5906 5906 5905 5905 5904 5904 5904 5903 5902 5902 5901 5900 5900 5899 5898 5897 5897 5896 5896 5895 5895 5894 5894 5893 5892 5892 5892 5891 5891 5890 5890 5889 5889 5888 5888 5888 5887 5887 5887 5887 5887 5887 5887
5905 5904 5903 5903 5902 5902 5901 5901 5900 5900 5899 5898 5897 5896 5896 5895 5895 5894 5893 5893 5892 5892 5891 5891 5890 5889 5889 5888 5888 5887 5887 5887 5886 5886 5885 5885 5885 5885 5885 5885 5885 5885 5885
5903 5902 5901 5901 5901 5900 5900 5899 5898 5897 5897 5896 5895 5894 5893 5893 5892 5891 5891 5890 5890 5889 5888 5888 5887 5886 5886 5885 5885 5884 5884 5884 5883 5883 5883 5882 5882 5882 5882 5882 5882 5882 5882
5900 5899 5899 5898 5898 5898 5897 5897 5896 5895 5894 5893 5892 5892 5891 5890 5889 5888 5888 5887 5886 5886 5885 5884 5884 5883 5883 5882 5882 5881 5881 5880 5880 5880 5880 5879 5879 5879 5879 5879 5879 5879 5879
5898 5897 5896 5896 5895 5895 5894 5894 5893 5892 5891 5891 5890 5889 5888 5887 5886 5885 5884 5883 5883 5882 5881 5881 5880 5879 5879 5878 5878 5878 5877 5877 5876 5876 5876 5875 5875 5875 5875 5875 5875 5875 5875
5895 5894 5893 5893 5893 5892 5892 5891 5890 5890 5889 5888 5887 5886 5885 5884 5882 5881 5880 5880 5879 5878 5877 5876 5876 5875 5875 5874 5874 5874 5873 5872 5872 5872 5872 5871 5871 5871 5871 5871 5871 5871 5871
5893 5891 5891 5890 5890 5889 5889 5888 5887 5886 5885 5884 5883 5882 5881 5880 5879 5877 5877 5876 5875 5874 5873 5872 5871 5870 5870 5869 5869 5869 5868 5868 5867 5867 5867 5867 5867 5867 5867 5867 5866 5867 5867
5890 5889 5888 5887 5887 5886 5885 5884 5884 5883 5882 5881 5880 5879 5877 5876 5875 5873 5872 5871 5870 5869 5868 5867 5866 5865 5865 5864 5864 5864 5863 5863 5862 5862 5862 5862 5861 5861 5861 5862 5862 5862 5863
5887 5885 5884 5884 5883 5883 5882 5881 5880 5879 5878 5877 5876 5875 5873 5872 5871 5869 5868 5867 5865 5864 5863 5862 5861 5860 5859 5859 5859 5858 5858 5857 5857 5856 5856 5856 5856 5856 5856 5856 5857 5857 5857
5883 5882 5881 5880 5879 5879 5878 5877 5876 5875 5874 5873 5872 5871 5869 5868 5866 5865 5863 5862 5861 5859 5858 5856 5855 5855 5854 5853 5853 5852 5852 5852 5851 5850 5850 5850 5850 5850 5851 5851 5851 5851 5852
5880 5879 5878 5877 5876 5875 5874 5873 5872 5871 5870 5869 5868 5866 5865 5863 5862 5860 5859 5857 5855 5854 5853 5852 5850 5849 5848 5847 5847 5846 5846 5846 5845 5844 5844 5844 5844 5844 5844 5845 5845 5845 5846
5876 5874 5873 5872 5871 5870 5869 5868 5867 5866 5865 5864 5863 5861 5860 5858 5856 5855 5853 5851 5850 5849 5848 5846 5844 5843 5842 5841 5840 5840 5839 5839 5839 5838 5837 5837 5837 5837 5838 5838 5838 5839 5839
5872 5870 5868 5868 5867 5866 5865 5864 5863 5862 5860 5859 5858 5856 5855 5853 5851 5849 5848 5846 5845 5843 5841 5840 5838 5836 5835 5834 5833 5833 5832 5832 5831 5830 5830 5830 5830 5830 5831 5831 5832 5832 5832
5868 5866 5865 5864 5863 5861 5860 5859 5858 5857 5856 5854 5853 5851 5850 5848 5846 5844 5842 5841 5839 5837 5835 5833 5832 5830 5828 5827 5826 5825 5825 5824 5824 5823 5823 5823 5823 5823 5824 5824 5825 5825 5826
5864 5862 5861 5860 5858 5857 5856 5855 5854 5852 5851 5849 5847 5846 5844 5842 5840 5838 5836 5834 5832 5831 5829 5826 5824 5822 5821 5819 5818 5818 5817 5816 5816 5815 5815 5815 5815 5816 5816 5817 5817 5818 5819
5860 5858 5857 5855 5854 5853 5852 5850 5848 5847 5845 5843 5842 5840 5838 5837 5834 5832 5830 5828 5826 5824 5822 5819 5817 5815 5813 5812 5810 5810 5809 5809 5808 5808 5808 5808 5808 5809 5809 5809 5810 5811 5812
5855 5853 5852 5851 5850 5848 5846 5845 5843 5842 5840 5838 5836 5834 5832 5830 5828 5826 5824 5822 5819 5817 5814 5812 5810 5807 5806 5804 5803 5802 5802 5801 5801 5800 5801 5801 5801 5801 5802 5802 5803 5804 5805
5850 5849 5847 5845 5844 5843 5841 5839 5838 5836 5833 5832 5829 5827 5826 5824 5822 5819 5817 5815 5812 5810 5807 5805 5803 5801 5799 5798 5796 5795 5794 5794 5793 5793 5793 5793 5793 5794 5794 5795 5796 5797 5798
5846 5844 5842 5841 5839 5837 5836 5834 5832 5830 5828 5825 5823 5821 5819 5817 5815 5813 5810 5808 5805 5802 5800 5797 5796 5794 5792 5791 5789 5788 5787 5786 5786 5785 5785 5785 5785 5786 5787 5787 5788 5789 5790
5841 5839 5837 5836 5834 5832 5830 5829 5827 5824 5822 5819 5817 5815 5813 5810 5808 5805 5803 5800 5797 5794 5792 5790 5788 5786 5785 5783 5782 5780 5779 5778 5778 5778 5777 5777 5777 5778 5779 5779 5780 5781 5783
5836 5834 5832 5831 5829 5827 5825 5823 5821 5818 5816 5813 5811 5809 5807 5804 5801 5798 5795 5793 5790 5787 5784 5782 5780 5778 5777 5775 5774 5773 5771 5770 5770 5770 5770 5770 5770 5770 5770 5771 5772 5773 5774
5831 5829 5827 5825 5823 5822 5819 5818 5815 5813 5810 5807 5805 5802 5800 5797 5794 5791 5788 5785 5782 5779 5776 5774 5772 5771 5769 5768 5766 5765 5764 5763 5762 5761 5762 5762 5762 5762 5762 5763 5764 5765 5766